Regional Weather Roundup
Issued by NWS

Home | Current Version | Previous Version | Text Only | Print | Product List | Glossary On
Versions: 1 2 3 4 5 6 7 8 9 10 11 12 13 14 15 16 17 18 19 20 21 22 23 24 25 26 27 28 29 30 31 32 33 34 35 36 37 38 39 40 41 42 43 44 45 46 47 48 49 50
000
ASUS45 KBOU 290807
RWRCO

WEATHER ROUNDUP FOR COLORADO
NATIONAL WEATHER SERVICE DENVER/BOULDER CO
200 AM MDT FRI MAY 29 2015

NOTE: "FAIR" INDICATES FEW OR NO CLOUDS BELOW 12000 FEET WITH NO
SIGNIFICANT WEATHER AND/OR OBSTRUCTIONS TO VISIBILITY.

COZ001>005-013-030-031-290900-
...NORTHWEST COLORADO...

CITY           SKY/WX    TMP DP  RH WIND       PRES   REMARKS
CRAIG          MOCLDY    39  36  89 SE3       30.24F
HAYDEN         CLOUDY    43  37  81 E3        30.25R
MEEKER         PTCLDY    41  38  89 NE7       30.25F
MOUNT WERNER   NOT AVBL
STEAMBOAT SPGS CLOUDY    40  38  93 SE3       30.26R
WALDEN         CLOUDY    37  34  87 CALM      30.27S
$$

COZ006>008-011-290900-
...WEST CENTRAL VALLEYS...

CITY           SKY/WX    TMP DP  RH WIND       PRES   REMARKS
GRAND JUNCTION CLEAR     49  44  83 CALM      30.16S
MONTROSE       PTCLDY    45  41  86 SE6       30.22S
EAGLE          CLEAR     52  46  82 SE5       30.27F
RIFLE          CLEAR     45  40  82 NE3       30.22F
DELTA          PTCLDY    50  43  77 NE3       30.19S
NUCLA          CLEAR     46  41  81 E5        30.23S
$$

COZ017>023-064>068-290900-
...SOUTHWEST COLORADO...

CITY           SKY/WX    TMP DP  RH WIND       PRES   REMARKS
DURANGO        CLEAR     44  38  79 N3        30.17S
CORTEZ         CLEAR     45  40  82 NE3       30.16S
PAGOSA SPRINGS CLEAR     46  34  63 CALM      30.22S
TELLURIDE      CLEAR     38  37  93 SE5       30.33S
WOLF CREEK PAS NOT AVBL
$$

COZ009-010-012-014-032>034-037-058>063-290900-
...CENTRAL COLORADO...

CITY           SKY/WX    TMP DP  RH WIND       PRES   REMARKS
ASPEN          PTCLDY    35  33  92 CALM      30.28R
BUENA VISTA    PTCLDY    39  32  76 CALM      30.27R
COPPER MTN     CLOUDY    34  30  86 W6        30.39F WCI  29
BERTHOUD PASS  HAZE      25  18  74 NW16G23   30.40F VSB<1/4 WCI  12
COTTONWOOD PAS PTCLDY    41  30  65 W7        30.33S
GUNNISON       CLEAR     37  32  81 CALM      30.30F
KREMMLING      CLOUDY    41  36  81 CALM      30.28F
LEADVILLE      PTCLDY    30  29  96 CALM      30.32S
MONARCH PASS   FOG       30  28  93 MISG      30.51S VSB<1/4
SALIDA         PTCLDY    42  35  75 SW5       30.33S
SUNLIGHT       PTCLDY    34  32  93 CALM      30.40F
WILKERSON PASS PTCLDY    32  27  80 SW6       30.40S WCI  26
$$

COZ069>075-290900-
...SAN LUIS VALLEY/SANGRE DE CRISTO MOUNTAINS...

CITY           SKY/WX    TMP DP  RH WIND       PRES   REMARKS
ALAMOSA        PTCLDY    43  34  70 N8        30.24S
LA VETA PASS   MOCLDY   N/A N/A N/A MISG      30.34F
SAGUACHE       MOCLDY    43  36  75 NW12      30.27S
$$

COZ035-036-038>040-290900-
...NORTHERN COLORADO FRONT RANGE...

CITY           SKY/WX    TMP DP  RH WIND       PRES   REMARKS
DENVER INTL AP MOCLDY    50  48  93 E8        30.14S
DMNS CITY PARK   N/A     52  45  77 S3        30.13S
AURORA         MOCLDY    48  45  89 S7        30.15S
FRONT RANGE AP MOCLDY    52  50  93 MISG      30.16R
ERIE MUNI ARPT PTCLDY    47  42  82 E7        30.12S
BOULDER MUN AP PTCLDY    52  36  54 N6        30.12S
CENTENNIAL     MOCLDY    50  43  77 CALM      30.15F
BROOMFIELD     PTCLDY    52  36  54 W6        30.14S
FORT COLLINS   MOCLDY    54  45  71 N10       30.14F
LONGMONT       MOCLDY    54  49  83 NE7       30.15R
$$

COZ041-046-047-076>085-087-088-290900-
...PIKES PEAK/PALMER DIVIDE AND SOUTHERN FOOTHILLS...

CITY           SKY/WX    TMP DP  RH WIND       PRES   REMARKS
COLO. SPRINGS  MOCLDY    51  43  74 NW8       30.18S
A. F. ACADEMY  PTCLDY    45  45  99 N9        30.18F
ELLICOTT       CLOUDY   N/A N/A N/A N3        30.16S
FALCON         PTCLDY    46  42  84 NW56G104  30.20S
FORT CARSON    MOCLDY    50  45  81 NW6       30.16R
LIMON          CLOUDY    50  45  83 N12       30.13S
MONUMENT HILL  CLEAR     41  37  87 E7        30.21S
TRINIDAD       CLOUDY    52  48  86 W9        30.15S
$$

COZ042>045-048>051-090-091-290900-
...NORTHEAST COLORADO...

CITY           SKY/WX    TMP DP  RH WIND       PRES   REMARKS
GREELEY ARPT   CLOUDY    54  48  82 NE12      30.13F
AKRON          MOCLDY    50  49  96 NW9       30.09F
BURLINGTON     CLOUDY    54  49  83 SW7       30.06F
WRAY           CLOUDY    55  51  87 SW7       30.04F
STERLING       MOCLDY    50  48  93 W8        30.08R
HOLYOKE        CLOUDY    59  54  82 NW9G16    30.03R
FORT MORGAN    MOCLDY    50  47  87 NW7       30.12S
$$

COZ086-089-092>099-290900-
...SOUTHEAST COLORADO...

CITY           SKY/WX    TMP DP  RH WIND       PRES   REMARKS
PUEBLO         PTCLDY    53  50  89 NW7       30.12S
LA JUNTA       PTCLDY    56  50  80 NW7       30.08F
LAMAR          PTCLDY    51  50  96 S6        30.03F
SPRINGFIELD      N/A     51  50  96 W5        30.06F
$$


USA.gov is the U.S. government's official web portal to all federal, state and local government web resources and services.